This is the latest recevied weather packets stored in our database for station/object KC5TIL-3. If no packets are shown the sender has not sent any weather packets the latest 10 day(s).
| Time | Temp. | Humidity | Pressure | Rain* | Wind** | Luminosity | Snow |
|---|---|---|---|---|---|---|---|
| 1777627697 | 14.44° C | 52% | 1012.8 hPa | 0 mm | 1.34 m/s, 79° | - | - |
| 1777627396 | 14.44° C | 51% | 1012.8 hPa | 0 mm | 2.24 m/s, 129° | - | - |
| 1777627098 | 14.44° C | 51% | 1012.8 hPa | 0 mm | 1.79 m/s, 114° | - | - |
| 1777626799 | 14.44° C | 51% | 1012.8 hPa | 0 mm | 1.79 m/s, 173° | - | - |
| 1777626498 | 14.44° C | 51% | 1012.8 hPa | 0 mm | 2.24 m/s, 109° | - | - |
| 1777625897 | 15° C | 50% | 1012.8 hPa | 0 mm | 1.79 m/s, 129° | - | - |
| 1777625596 | 15° C | 50% | 1012.8 hPa | 0 mm | 1.79 m/s, 166° | - | - |
| 1777625298 | 15° C | 49% | 1012.8 hPa | 0 mm | 1.34 m/s, 188° | - | - |
| 1777624999 | 15° C | 49% | 1012.8 hPa | 0 mm | 2.24 m/s, 325° | - | - |
| 1777624698 | 15° C | 49% | 1012.8 hPa | 0 mm | 1.79 m/s, 12° | - | - |
| 1777624102 | 15° C | 50% | 1012.8 hPa | 0 mm | 2.24 m/s, 319° | - | - |
| 1777623801 | 15° C | 51% | 1012.8 hPa | 0 mm | 2.24 m/s, 341° | - | - |
| 1777623204 | 15° C | 52% | 1011.8 hPa | 0 mm | 1.79 m/s, 26° | - | - |
| 1777622601 | 15° C | 53% | 1012.8 hPa | 0 mm | 2.24 m/s, 351° | - | - |
| 1777622303 | 15° C | 54% | 1012.8 hPa | 0 mm | 2.24 m/s, 296° | - | - |
| 1777622000 | 15° C | 54% | 1012.8 hPa | 0 mm | 1.79 m/s, 137° | - | - |
| 1777621703 | 15° C | 53% | 1012.8 hPa | 0 mm | 2.68 m/s, 22° | - | - |
| 1777621400 | 15° C | 53% | 1012.8 hPa | 0 mm | 2.24 m/s, 317° | - | - |
| 1777621098 | 15° C | 53% | 1012.8 hPa | 0 mm | 1.79 m/s, 356° | - | - |
| 1777620587 | 15° C | 51% | 1012.8 hPa | 0 mm | 2.24 m/s, 345° | - | - |
| 1777620498 | 15° C | 51% | 1012.8 hPa | 0 mm | 2.24 m/s, 345° | - | - |
| 1777620196 | 15.56° C | 50% | 1012.8 hPa | 0 mm | 2.24 m/s, 23° | - | - |
| 1777619898 | 15.56° C | 48% | 1013.8 hPa | 0 mm | 1.79 m/s, 27° | - | - |
| 1777619600 | 15.56° C | 46% | 1013.8 hPa | 0 mm | 1.79 m/s, 208° | - | - |
| 1777619299 | 15.56° C | 46% | 1013.8 hPa | 0 mm | 2.24 m/s, 351° | - | - |
* Rain latest hour (hover to see other rain measurements)
** Current wind speed in m/s (hover to see current wind gust speed)